Time,TemperatureF,DewpointF,PressureIn,WindDirection,WindDirectionDegrees,WindSpeedMPH,WindSpeedGustMPH,Humidity,HourlyPrecipIn,Conditions,Clouds,dailyrainin,SoftwareType,DateUTC
2013-04-09 00:00:00,66.5,54.4,29.89,SW,221,6.0,-999.0,65,0.00,,,0.00,Wunderground v.1.15,2013-04-09 04:00:00,
2013-04-09 00:04:00,66.5,54.4,29.89,WSW,244,6.0,-999.0,65,0.00,,,0.00,Wunderground v.1.15,2013-04-09 04:04:00,
2013-04-09 00:09:00,66.5,54.4,29.89,WSW,252,6.0,-999.0,65,0.00,,,0.00,Wunderground v.1.15,2013-04-09 04:09:00,
2013-04-09 00:11:00,66.4,54.3,29.89,WSW,246,5.0,-999.0,65,0.00,,,0.00,Wunderground v.1.15,2013-04-09 04:11:00,
2013-04-09 00:17:00,66.5,54.4,29.89,WSW,240,5.0,-999.0,65,0.00,,,0.00,Wunderground v.1.15,2013-04-09 04:17:00,
2013-04-09 00:22:00,66.4,54.7,29.89,West,259,4.0,-999.0,66,0.00,,,0.00,Wunderground v.1.15,2013-04-09 04:22:00,
2013-04-09 00:30:00,66.3,54.6,29.90,West,265,4.0,-999.0,66,0.00,,,0.00,Wunderground v.1.15,2013-04-09 04:30:00,
2013-04-09 00:36:00,66.4,54.7,29.90,WNW,300,4.0,-999.0,66,0.00,,,0.00,Wunderground v.1.15,2013-04-09 04:36:00,
2013-04-09 00:41:00,66.4,54.7,29.90,West,267,3.0,-999.0,66,0.00,,,0.00,Wunderground v.1.15,2013-04-09 04:41:00,
2013-04-09 00:46:00,66.4,54.7,29.91,WNW,284,3.0,-999.0,66,0.00,,,0.00,Wunderground v.1.15,2013-04-09 04:46:00,
2013-04-09 00:52:00,66.3,55.0,29.91,WNW,300,3.0,-999.0,67,0.00,,,0.00,Wunderground v.1.15,2013-04-09 04:52:00,
2013-04-09 00:57:00,66.2,54.9,29.91,NW,310,3.0,-999.0,67,0.00,,,0.00,Wunderground v.1.15,2013-04-09 04:57:00,
2013-04-09 01:02:00,66.2,54.9,29.91,West,278,4.0,-999.0,67,0.00,,,0.00,Wunderground v.1.15,2013-04-09 05:02:00,
2013-04-09 01:07:00,66.1,54.8,29.91,West,277,4.0,-999.0,67,0.00,,,0.00,Wunderground v.1.15,2013-04-09 05:07:00,
2013-04-09 01:12:00,66.1,54.8,29.91,WNW,287,4.0,-999.0,67,0.00,,,0.00,Wunderground v.1.15,2013-04-09 05:12:00,
2013-04-09 01:18:00,66.0,55.1,29.91,WSW,248,3.0,-999.0,68,0.00,,,0.00,Wunderground v.1.15,2013-04-09 05:18:00,
2013-04-09 01:24:00,65.8,54.9,29.92,West,269,2.0,-999.0,68,0.00,,,0.00,Wunderground v.1.15,2013-04-09 05:24:00,
2013-04-09 01:29:00,65.8,54.9,29.92,West,261,2.0,-999.0,68,0.00,,,0.00,Wunderground v.1.15,2013-04-09 05:29:00,
2013-04-09 01:35:00,65.8,54.9,29.92,WNW,286,3.0,-999.0,68,0.00,,,0.00,Wunderground v.1.15,2013-04-09 05:35:00,
2013-04-09 01:42:00,65.7,54.8,29.92,WSW,246,2.0,-999.0,68,0.00,,,0.00,Wunderground v.1.15,2013-04-09 05:42:00,
2013-04-09 01:48:00,65.5,54.7,29.92,West,259,2.0,-999.0,68,0.00,,,0.00,Wunderground v.1.15,2013-04-09 05:48:00,
2013-04-09 01:54:00,65.5,55.1,29.92,WSW,253,3.0,-999.0,69,0.00,,,0.00,Wunderground v.1.15,2013-04-09 05:54:00,
2013-04-09 02:00:00,65.6,54.8,29.92,West,273,4.0,-999.0,68,0.00,,,0.00,Wunderground v.1.15,2013-04-09 06:00:00,
2013-04-09 02:05:00,65.4,55.0,29.92,WNW,299,2.0,-999.0,69,0.00,,,0.00,Wunderground v.1.15,2013-04-09 06:05:00,
2013-04-09 02:11:00,65.2,54.8,29.92,West,264,2.0,-999.0,69,0.00,,,0.00,Wunderground v.1.15,2013-04-09 06:11:00,
2013-04-09 02:16:00,65.0,54.6,29.92,WNW,298,2.0,-999.0,69,0.00,,,0.00,Wunderground v.1.15,2013-04-09 06:16:00,
2013-04-09 02:21:00,64.8,54.4,29.92,WNW,299,1.0,-999.0,69,0.00,,,0.00,Wunderground v.1.15,2013-04-09 06:21:00,
2013-04-09 02:28:00,64.6,54.6,29.92,WNW,301,2.0,-999.0,70,0.00,,,0.00,Wunderground v.1.15,2013-04-09 06:28:00,
2013-04-09 02:33:00,64.4,54.4,29.92,WNW,301,2.0,-999.0,70,0.00,,,0.00,Wunderground v.1.15,2013-04-09 06:33:00,
2013-04-09 02:39:00,64.0,54.0,29.92,WNW,301,0.0,-999.0,70,0.00,,,0.00,Wunderground v.1.15,2013-04-09 06:39:00,
2013-04-09 02:44:00,63.6,54.0,29.92,WNW,301,0.0,-999.0,71,0.00,,,0.00,Wunderground v.1.15,2013-04-09 06:44:00,
2013-04-09 02:49:00,63.5,54.3,29.92,WNW,301,0.0,-999.0,72,0.00,,,0.00,Wunderground v.1.15,2013-04-09 06:49:00,
2013-04-09 02:54:00,63.4,54.2,29.92,WNW,301,0.0,-999.0,72,0.00,,,0.00,Wunderground v.1.15,2013-04-09 06:54:00,
2013-04-09 03:00:00,63.3,54.1,29.92,WNW,301,0.0,-999.0,72,0.00,,,0.00,Wunderground v.1.15,2013-04-09 07:00:00,
2013-04-09 03:05:00,63.1,54.3,29.93,WNW,301,0.0,-999.0,73,0.00,,,0.00,Wunderground v.1.15,2013-04-09 07:05:00,
2013-04-09 03:11:00,62.7,53.5,29.93,WNW,301,0.0,-999.0,72,0.00,,,0.00,Wunderground v.1.15,2013-04-09 07:11:00,
2013-04-09 03:16:00,62.3,53.9,29.93,WNW,301,0.0,-999.0,74,0.00,,,0.00,Wunderground v.1.15,2013-04-09 07:16:00,
2013-04-09 03:22:00,62.1,54.1,29.93,WNW,301,0.0,-999.0,75,0.00,,,0.00,Wunderground v.1.15,2013-04-09 07:22:00,
2013-04-09 03:27:00,62.2,54.2,29.93,WNW,301,0.0,-999.0,75,0.00,,,0.00,Wunderground v.1.15,2013-04-09 07:27:00,
2013-04-09 03:32:00,62.2,53.8,29.93,WNW,301,0.0,-999.0,74,0.00,,,0.00,Wunderground v.1.15,2013-04-09 07:32:00,
2013-04-09 03:37:00,62.0,54.0,29.94,WNW,301,0.0,-999.0,75,0.00,,,0.00,Wunderground v.1.15,2013-04-09 07:37:00,
2013-04-09 03:43:00,61.8,53.8,29.94,WNW,301,0.0,-999.0,75,0.00,,,0.00,Wunderground v.1.15,2013-04-09 07:43:00,
2013-04-09 03:49:00,62.0,54.3,29.94,WNW,301,0.0,-999.0,76,0.00,,,0.00,Wunderground v.1.15,2013-04-09 07:49:00,
2013-04-09 03:54:00,62.2,54.2,29.94,WNW,301,1.0,-999.0,75,0.00,,,0.00,Wunderground v.1.15,2013-04-09 07:54:00,
2013-04-09 03:59:00,62.2,54.2,29.94,WNW,301,0.0,-999.0,75,0.00,,,0.00,Wunderground v.1.15,2013-04-09 07:59:00,
2013-04-09 04:05:00,62.0,54.0,29.94,WNW,302,0.0,-999.0,75,0.00,,,0.00,Wunderground v.1.15,2013-04-09 08:05:00,
2013-04-09 04:10:00,61.8,54.2,29.94,WNW,302,0.0,-999.0,76,0.00,,,0.00,Wunderground v.1.15,2013-04-09 08:10:00,
2013-04-09 04:17:00,61.8,54.5,29.95,WNW,302,0.0,-999.0,77,0.00,,,0.00,Wunderground v.1.15,2013-04-09 08:17:00,
2013-04-09 04:22:00,61.8,54.5,29.95,WNW,302,0.0,-999.0,77,0.00,,,0.00,Wunderground v.1.15,2013-04-09 08:22:00,
2013-04-09 04:27:00,61.7,54.4,29.95,WNW,302,0.0,-999.0,77,0.00,,,0.00,Wunderground v.1.15,2013-04-09 08:27:00,
2013-04-09 04:33:00,61.5,54.2,29.95,WNW,302,0.0,-999.0,77,0.00,,,0.00,Wunderground v.1.15,2013-04-09 08:33:00,
2013-04-09 04:39:00,60.6,53.0,29.95,WNW,302,0.0,-999.0,76,0.00,,,0.00,Wunderground v.1.15,2013-04-09 08:39:00,
2013-04-09 04:44:00,59.7,52.5,29.95,WNW,302,0.0,-999.0,77,0.00,,,0.00,Wunderground v.1.15,2013-04-09 08:44:00,
2013-04-09 04:50:00,58.6,51.8,29.96,WNW,302,0.0,-999.0,78,0.00,,,0.00,Wunderground v.1.15,2013-04-09 08:50:00,
2013-04-09 04:55:00,57.9,51.4,29.96,WNW,302,0.0,-999.0,79,0.00,,,0.00,Wunderground v.1.15,2013-04-09 08:55:00,
2013-04-09 05:00:00,57.6,51.1,29.96,WNW,302,0.0,-999.0,79,0.00,,,0.00,Wunderground v.1.15,2013-04-09 09:00:00,
2013-04-09 05:05:00,57.5,51.0,29.96,WNW,302,0.0,-999.0,79,0.00,,,0.00,Wunderground v.1.15,2013-04-09 09:05:00,
2013-04-09 05:10:00,57.3,50.8,29.96,WNW,302,0.0,-999.0,79,0.00,,,0.00,Wunderground v.1.15,2013-04-09 09:10:00,
2013-04-09 05:16:00,57.2,50.7,29.96,WNW,302,0.0,-999.0,79,0.00,,,0.00,Wunderground v.1.15,2013-04-09 09:16:00,
2013-04-09 05:22:00,56.9,50.5,29.97,WNW,302,0.0,-999.0,79,0.00,,,0.00,Wunderground v.1.15,2013-04-09 09:22:00,
2013-04-09 05:28:00,56.6,50.2,29.97,WNW,302,0.0,-999.0,79,0.00,,,0.00,Wunderground v.1.15,2013-04-09 09:28:00,
2013-04-09 05:34:00,56.3,49.9,29.97,WNW,302,0.0,-999.0,79,0.00,,,0.00,Wunderground v.1.15,2013-04-09 09:34:00,
2013-04-09 05:39:00,56.1,50.0,29.97,WNW,302,0.0,-999.0,80,0.00,,,0.00,Wunderground v.1.15,2013-04-09 09:39:00,
2013-04-09 05:45:00,55.7,49.6,29.97,WNW,302,0.0,-999.0,80,0.00,,,0.00,Wunderground v.1.15,2013-04-09 09:45:00,
2013-04-09 05:51:00,55.2,49.5,29.98,WNW,302,0.0,-999.0,81,0.00,,,0.00,Wunderground v.1.15,2013-04-09 09:51:00,
2013-04-09 05:57:00,54.8,49.1,29.98,WNW,302,0.0,-999.0,81,0.00,,,0.00,Wunderground v.1.15,2013-04-09 09:57:00,
2013-04-09 06:02:00,54.4,49.0,29.98,WNW,302,0.0,-999.0,82,0.00,,,0.00,Wunderground v.1.15,2013-04-09 10:02:00,
2013-04-09 06:08:00,54.1,48.7,29.98,WNW,302,0.0,-999.0,82,0.00,,,0.00,Wunderground v.1.15,2013-04-09 10:08:00,
2013-04-09 06:12:00,53.7,48.3,29.98,WNW,302,0.0,-999.0,82,0.00,,,0.00,Wunderground v.1.15,2013-04-09 10:12:00,
2013-04-09 06:18:00,53.2,48.2,29.98,WNW,302,0.0,-999.0,83,0.00,,,0.00,Wunderground v.1.15,2013-04-09 10:18:00,
2013-04-09 06:24:00,52.6,47.9,29.97,WNW,302,0.0,-999.0,84,0.00,,,0.00,Wunderground v.1.15,2013-04-09 10:24:00,
2013-04-09 06:29:00,51.6,46.6,29.97,WNW,302,0.0,-999.0,83,0.00,,,0.00,Wunderground v.1.15,2013-04-09 10:29:00,
2013-04-09 06:34:00,51.5,47.1,29.98,WNW,302,0.0,-999.0,85,0.00,,,0.00,Wunderground v.1.15,2013-04-09 10:34:00,
2013-04-09 06:40:00,51.6,47.5,29.98,WNW,302,0.0,-999.0,86,0.00,,,0.00,Wunderground v.1.15,2013-04-09 10:40:00,
2013-04-09 06:45:00,51.6,47.5,29.98,WNW,302,0.0,-999.0,86,0.00,,,0.00,Wunderground v.1.15,2013-04-09 10:45:00,
2013-04-09 06:51:00,51.4,47.4,29.99,WNW,302,0.0,-999.0,86,0.00,,,0.00,Wunderground v.1.15,2013-04-09 10:51:00,
2013-04-09 06:56:00,51.0,46.6,29.99,WNW,302,0.0,-999.0,85,0.00,,,0.00,Wunderground v.1.15,2013-04-09 10:56:00,
2013-04-09 07:02:00,50.5,46.2,29.99,WNW,302,0.0,-999.0,85,0.00,,,0.00,Wunderground v.1.15,2013-04-09 11:02:00,
2013-04-09 07:08:00,49.9,45.9,29.99,WNW,302,0.0,-999.0,86,0.00,,,0.00,Wunderground v.1.15,2013-04-09 11:08:00,
2013-04-09 07:13:00,49.5,45.5,29.99,WNW,302,0.0,-999.0,86,0.00,,,0.00,Wunderground v.1.15,2013-04-09 11:13:00,
2013-04-09 07:19:00,49.3,45.6,29.99,WNW,302,0.0,-999.0,87,0.00,,,0.00,Wunderground v.1.15,2013-04-09 11:19:00,
2013-04-09 07:24:00,49.2,45.5,30.00,WNW,302,0.0,-999.0,87,0.00,,,0.00,Wunderground v.1.15,2013-04-09 11:24:00,
2013-04-09 07:29:00,49.3,45.9,30.00,WNW,302,0.0,-999.0,88,0.00,,,0.00,Wunderground v.1.15,2013-04-09 11:29:00,
2013-04-09 07:35:00,49.3,45.9,30.00,WNW,302,0.0,-999.0,88,0.00,,,0.00,Wunderground v.1.15,2013-04-09 11:35:00,
2013-04-09 07:41:00,49.5,46.4,30.00,WNW,302,0.0,-999.0,89,0.00,,,0.00,Wunderground v.1.15,2013-04-09 11:41:00,
2013-04-09 07:47:00,49.6,46.5,30.00,WNW,302,0.0,-999.0,89,0.00,,,0.00,Wunderground v.1.15,2013-04-09 11:47:00,
2013-04-09 07:53:00,49.8,46.7,30.00,WNW,302,0.0,-999.0,89,0.00,,,0.00,Wunderground v.1.15,2013-04-09 11:53:00,
2013-04-09 07:59:00,50.1,47.0,30.01,WNW,302,0.0,-999.0,89,0.00,,,0.00,Wunderground v.1.15,2013-04-09 11:59:00,
2013-04-09 08:04:00,50.4,47.3,30.01,WNW,302,0.0,-999.0,89,0.00,,,0.00,Wunderground v.1.15,2013-04-09 12:04:00,
2013-04-09 08:09:00,50.7,47.6,30.01,WNW,302,0.0,-999.0,89,0.00,,,0.00,Wunderground v.1.15,2013-04-09 12:09:00,
2013-04-09 08:15:00,51.2,48.1,30.02,WNW,302,0.0,-999.0,89,0.00,,,0.00,Wunderground v.1.15,2013-04-09 12:15:00,
2013-04-09 08:20:00,51.8,48.4,30.02,WNW,302,0.0,-999.0,88,0.00,,,0.00,Wunderground v.1.15,2013-04-09 12:20:00,
2013-04-09 08:27:00,52.4,48.9,30.02,WNW,302,0.0,-999.0,88,0.00,,,0.00,Wunderground v.1.15,2013-04-09 12:27:00,
2013-04-09 08:32:00,53.1,49.3,30.02,WNW,302,0.0,-999.0,87,0.00,,,0.00,Wunderground v.1.15,2013-04-09 12:32:00,
2013-04-09 08:38:00,53.8,49.7,30.02,WNW,302,0.0,-999.0,86,0.00,,,0.00,Wunderground v.1.15,2013-04-09 12:38:00,
2013-04-09 08:44:00,54.6,49.9,30.02,WNW,302,0.0,-999.0,84,0.00,,,0.00,Wunderground v.1.15,2013-04-09 12:44:00,
2013-04-09 08:50:00,55.7,50.3,30.02,WNW,302,0.0,-999.0,82,0.00,,,0.00,Wunderground v.1.15,2013-04-09 12:50:00,
2013-04-09 08:56:00,56.8,50.0,30.02,WSW,238,0.0,-999.0,78,0.00,,,0.00,Wunderground v.1.15,2013-04-09 12:56:00,
2013-04-09 09:02:00,57.8,50.3,30.01,SSW,193,1.0,-999.0,76,0.00,,,0.00,Wunderground v.1.15,2013-04-09 13:02:00,
2013-04-09 09:08:00,58.7,49.7,30.01,South,169,1.0,-999.0,72,0.00,,,0.00,Wunderground v.1.15,2013-04-09 13:08:00,
2013-04-09 09:13:00,59.5,49.7,30.01,SSE,162,1.0,-999.0,70,0.00,,,0.00,Wunderground v.1.15,2013-04-09 13:13:00,
2013-04-09 09:20:00,60.3,50.1,30.01,SSE,162,0.0,-999.0,69,0.00,,,0.00,Wunderground v.1.15,2013-04-09 13:20:00,
2013-04-09 09:25:00,60.9,49.9,30.01,SE,146,1.0,-999.0,67,0.00,,,0.00,Wunderground v.1.15,2013-04-09 13:25:00,
2013-04-09 09:30:00,61.6,50.1,30.01,SSE,154,1.0,-999.0,66,0.00,,,0.00,Wunderground v.1.15,2013-04-09 13:30:00,
2013-04-09 09:36:00,61.7,49.4,30.01,SSE,156,3.0,-999.0,64,0.00,,,0.00,Wunderground v.1.15,2013-04-09 13:36:00,
2013-04-09 09:41:00,61.7,49.8,30.01,SSE,156,3.0,-999.0,65,0.00,,,0.00,Wunderground v.1.15,2013-04-09 13:41:00,
2013-04-09 09:47:00,62.0,49.7,30.01,South,172,2.0,-999.0,64,0.00,,,0.00,Wunderground v.1.15,2013-04-09 13:47:00,
2013-04-09 09:52:00,62.2,49.9,30.01,South,177,5.0,-999.0,64,0.00,,,0.00,Wunderground v.1.15,2013-04-09 13:52:00,
2013-04-09 09:57:00,62.1,49.4,30.01,South,178,5.0,-999.0,63,0.00,,,0.00,Wunderground v.1.15,2013-04-09 13:57:00,
2013-04-09 10:03:00,62.7,50.3,30.01,SSE,153,5.0,-999.0,64,0.00,,,0.00,Wunderground v.1.15,2013-04-09 14:03:00,
2013-04-09 10:08:00,63.0,50.2,30.01,South,171,5.0,-999.0,63,0.00,,,0.00,Wunderground v.1.15,2013-04-09 14:08:00,
2013-04-09 10:14:00,63.5,50.7,30.01,SSE,165,5.0,-999.0,63,0.00,,,0.00,Wunderground v.1.15,2013-04-09 14:14:00,
2013-04-09 10:19:00,64.0,50.7,30.01,SSW,207,5.0,-999.0,62,0.00,,,0.00,Wunderground v.1.15,2013-04-09 14:19:00,
2013-04-09 10:25:00,64.3,51.0,30.01,South,185,4.0,-999.0,62,0.00,,,0.00,Wunderground v.1.15,2013-04-09 14:25:00,
2013-04-09 10:31:00,64.6,51.3,30.00,South,185,3.0,-999.0,62,0.00,,,0.00,Wunderground v.1.15,2013-04-09 14:31:00,
2013-04-09 10:36:00,65.3,50.6,30.00,SSE,157,2.0,-999.0,59,0.00,,,0.00,Wunderground v.1.15,2013-04-09 14:36:00,
2013-04-09 10:42:00,65.6,50.9,30.00,South,170,4.0,-999.0,59,0.00,,,0.00,Wunderground v.1.15,2013-04-09 14:42:00,
2013-04-09 10:48:00,65.9,51.2,30.00,SSE,148,4.0,-999.0,59,0.00,,,0.00,Wunderground v.1.15,2013-04-09 14:48:00,
2013-04-09 10:54:00,66.6,51.8,29.99,East,94,2.0,-999.0,59,0.00,,,0.00,Wunderground v.1.15,2013-04-09 14:54:00,
2013-04-09 10:59:00,67.4,52.1,29.99,SSE,162,2.0,-999.0,58,0.00,,,0.00,Wunderground v.1.15,2013-04-09 14:59:00,
2013-04-09 11:04:00,67.9,53.0,29.99,SSE,166,4.0,-999.0,59,0.00,,,0.00,Wunderground v.1.15,2013-04-09 15:04:00,
2013-04-09 11:10:00,68.3,52.9,29.98,SSE,162,4.0,-999.0,58,0.00,,,0.00,Wunderground v.1.15,2013-04-09 15:10:00,
2013-04-09 11:15:00,68.9,53.5,29.98,South,187,3.0,-999.0,58,0.00,,,0.00,Wunderground v.1.15,2013-04-09 15:15:00,
2013-04-09 11:21:00,68.9,53.5,29.98,SSE,166,3.0,-999.0,58,0.00,,,0.00,Wunderground v.1.15,2013-04-09 15:21:00,
2013-04-09 11:26:00,69.2,54.3,29.99,SSW,203,4.0,-999.0,59,0.00,,,0.00,Wunderground v.1.15,2013-04-09 15:26:00,
2013-04-09 11:31:00,69.5,53.6,29.99,South,178,4.0,-999.0,57,0.00,,,0.00,Wunderground v.1.15,2013-04-09 15:31:00,
2013-04-09 11:37:00,70.2,54.7,29.98,SSE,157,4.0,-999.0,58,0.00,,,0.00,Wunderground v.1.15,2013-04-09 15:37:00,
2013-04-09 11:42:00,70.6,54.6,29.98,SSW,196,4.0,-999.0,57,0.00,,,0.00,Wunderground v.1.15,2013-04-09 15:42:00,
2013-04-09 11:48:00,70.6,54.6,29.97,SSE,159,4.0,-999.0,57,0.00,,,0.00,Wunderground v.1.15,2013-04-09 15:48:00,
2013-04-09 11:54:00,70.6,54.6,29.97,SSE,165,4.0,-999.0,57,0.00,,,0.00,Wunderground v.1.15,2013-04-09 15:54:00,
2013-04-09 11:59:00,70.4,55.4,29.97,South,183,5.0,-999.0,59,0.00,,,0.00,Wunderground v.1.15,2013-04-09 15:59:00,
2013-04-09 12:04:00,70.6,55.6,29.97,SSW,209,4.0,-999.0,59,0.00,,,0.00,Wunderground v.1.15,2013-04-09 16:04:00,
2013-04-09 12:09:00,70.8,56.2,29.97,SW,216,4.0,-999.0,60,0.00,,,0.00,Wunderground v.1.15,2013-04-09 16:09:00,
2013-04-09 12:14:00,71.2,57.1,29.96,South,183,4.0,-999.0,61,0.00,,,0.00,Wunderground v.1.15,2013-04-09 16:14:00,
2013-04-09 12:20:00,72.1,56.0,29.96,SSE,163,3.0,-999.0,57,0.00,,,0.00,Wunderground v.1.15,2013-04-09 16:20:00,
2013-04-09 12:26:00,72.8,56.7,29.95,South,179,4.0,-999.0,57,0.00,,,0.00,Wunderground v.1.15,2013-04-09 16:26:00,
2013-04-09 12:31:00,73.1,57.9,29.95,SSW,202,5.0,-999.0,59,0.00,,,0.00,Wunderground v.1.15,2013-04-09 16:31:00,
2013-04-09 12:37:00,73.3,57.1,29.94,SW,229,5.0,-999.0,57,0.00,,,0.00,Wunderground v.1.15,2013-04-09 16:37:00,
2013-04-09 12:42:00,73.6,58.9,29.94,SSW,208,5.0,-999.0,60,0.00,,,0.00,Wunderground v.1.15,2013-04-09 16:42:00,
2013-04-09 12:47:00,74.4,58.7,29.93,SSW,203,5.0,-999.0,58,0.00,,,0.00,Wunderground v.1.15,2013-04-09 16:47:00,
2013-04-09 12:52:00,74.4,58.2,29.93,WSW,245,5.0,-999.0,57,0.00,,,0.00,Wunderground v.1.15,2013-04-09 16:52:00,
2013-04-09 12:59:00,74.5,58.8,29.93,South,175,5.0,-999.0,58,0.00,,,0.00,Wunderground v.1.15,2013-04-09 16:59:00,
2013-04-09 13:04:00,74.8,59.0,29.92,SSW,197,6.0,-999.0,58,0.00,,,0.00,Wunderground v.1.15,2013-04-09 17:04:00,
2013-04-09 13:09:00,75.4,58.6,29.92,South,173,7.0,-999.0,56,0.00,,,0.00,Wunderground v.1.15,2013-04-09 17:09:00,
2013-04-09 13:14:00,75.3,58.0,29.92,South,174,7.0,-999.0,55,0.00,,,0.00,Wunderground v.1.15,2013-04-09 17:14:00,
2013-04-09 13:19:00,75.3,58.0,29.92,SSW,210,6.0,-999.0,55,0.00,,,0.00,Wunderground v.1.15,2013-04-09 17:19:00,
2013-04-09 13:25:00,76.0,59.2,29.91,South,191,5.0,-999.0,56,0.00,,,0.00,Wunderground v.1.15,2013-04-09 17:25:00,
2013-04-09 13:30:00,77.0,59.6,29.91,SSW,198,8.0,-999.0,55,0.00,,,0.00,Wunderground v.1.15,2013-04-09 17:30:00,
2013-04-09 13:37:00,77.1,59.2,29.91,West,263,7.0,-999.0,54,0.00,,,0.00,Wunderground v.1.15,2013-04-09 17:37:00,
2013-04-09 13:42:00,77.3,58.3,29.91,SW,221,8.0,-999.0,52,0.00,,,0.00,Wunderground v.1.15,2013-04-09 17:42:00,
2013-04-09 13:47:00,77.5,59.0,29.91,SW,222,8.0,-999.0,53,0.00,,,0.00,Wunderground v.1.15,2013-04-09 17:47:00,
2013-04-09 13:52:00,78.1,59.0,29.90,SSW,196,7.0,-999.0,52,0.00,,,0.00,Wunderground v.1.15,2013-04-09 17:52:00,
2013-04-09 13:57:00,78.0,58.9,29.90,South,190,8.0,-999.0,52,0.00,,,0.00,Wunderground v.1.15,2013-04-09 17:57:00,
2013-04-09 14:02:00,78.4,58.8,29.90,SW,224,8.0,-999.0,51,0.00,,,0.00,Wunderground v.1.15,2013-04-09 18:02:00,
2013-04-09 14:08:00,77.5,57.4,29.91,SW,217,9.0,-999.0,50,0.00,,,0.00,Wunderground v.1.15,2013-04-09 18:08:00,
2013-04-09 14:13:00,77.1,57.6,29.90,SW,219,8.0,-999.0,51,0.00,,,0.00,Wunderground v.1.15,2013-04-09 18:13:00,
2013-04-09 14:19:00,76.7,57.7,29.90,WSW,248,7.0,-999.0,52,0.00,,,0.00,Wunderground v.1.15,2013-04-09 18:19:00,
2013-04-09 14:24:00,76.6,58.2,29.89,SSW,200,8.0,-999.0,53,0.00,,,0.00,Wunderground v.1.15,2013-04-09 18:24:00,
2013-04-09 14:31:00,76.6,58.2,29.89,SSW,212,7.0,-999.0,53,0.00,,,0.00,Wunderground v.1.15,2013-04-09 18:31:00,
2013-04-09 14:36:00,76.5,58.1,29.89,SSW,197,5.0,-999.0,53,0.00,,,0.00,Wunderground v.1.15,2013-04-09 18:36:00,
2013-04-09 14:42:00,76.9,59.0,29.88,SW,221,5.0,-999.0,54,0.00,,,0.00,Wunderground v.1.15,2013-04-09 18:42:00,
2013-04-09 14:47:00,77.4,58.9,29.87,SW,215,6.0,-999.0,53,0.00,,,0.00,Wunderground v.1.15,2013-04-09 18:47:00,
2013-04-09 14:52:00,78.3,58.1,29.87,West,263,7.0,-999.0,50,0.00,,,0.00,Wunderground v.1.15,2013-04-09 18:52:00,
2013-04-09 14:57:00,78.4,58.8,29.87,SSW,193,7.0,-999.0,51,0.00,,,0.00,Wunderground v.1.15,2013-04-09 18:57:00,
2013-04-09 15:04:00,78.7,58.5,29.86,South,183,9.0,-999.0,50,0.00,,,0.00,Wunderground v.1.15,2013-04-09 19:04:00,
2013-04-09 15:10:00,78.8,58.0,29.86,SSW,208,9.0,-999.0,49,0.00,,,0.00,Wunderground v.1.15,2013-04-09 19:10:00,
2013-04-09 15:16:00,78.6,57.8,29.86,SW,221,9.0,-999.0,49,0.00,,,0.00,Wunderground v.1.15,2013-04-09 19:16:00,
2013-04-09 15:20:00,78.5,57.7,29.86,SSW,200,8.0,-999.0,49,0.00,,,0.00,Wunderground v.1.15,2013-04-09 19:20:00,
2013-04-09 15:27:00,78.7,58.5,29.86,SW,215,7.0,-999.0,50,0.00,,,0.00,Wunderground v.1.15,2013-04-09 19:27:00,
2013-04-09 15:32:00,78.7,57.9,29.86,SW,220,8.0,-999.0,49,0.00,,,0.00,Wunderground v.1.15,2013-04-09 19:32:00,
2013-04-09 15:37:00,78.9,58.7,29.85,SW,225,9.0,-999.0,50,0.00,,,0.00,Wunderground v.1.15,2013-04-09 19:37:00,
2013-04-09 15:43:00,79.2,57.8,29.85,WSW,251,8.0,-999.0,48,0.00,,,0.00,Wunderground v.1.15,2013-04-09 19:43:00,
2013-04-09 15:48:00,79.1,57.7,29.85,South,177,8.0,-999.0,48,0.00,,,0.00,Wunderground v.1.15,2013-04-09 19:48:00,
2013-04-09 15:53:00,78.9,58.1,29.84,SSW,211,9.0,-999.0,49,0.00,,,0.00,Wunderground v.1.15,2013-04-09 19:53:00,
2013-04-09 15:59:00,79.1,58.3,29.84,WSW,245,7.0,-999.0,49,0.00,,,0.00,Wunderground v.1.15,2013-04-09 19:59:00,
2013-04-09 16:04:00,79.4,57.4,29.83,SSW,212,8.0,-999.0,47,0.00,,,0.00,Wunderground v.1.15,2013-04-09 20:04:00,
2013-04-09 16:09:00,79.5,58.1,29.83,SW,220,9.0,-999.0,48,0.00,,,0.00,Wunderground v.1.15,2013-04-09 20:09:00,
2013-04-09 16:15:00,79.5,58.1,29.83,SW,218,7.0,-999.0,48,0.00,,,0.00,Wunderground v.1.15,2013-04-09 20:15:00,
2013-04-09 16:20:00,79.8,58.4,29.83,SSW,213,8.0,-999.0,48,0.00,,,0.00,Wunderground v.1.15,2013-04-09 20:20:00,
2013-04-09 16:26:00,80.8,58.7,29.82,SW,218,6.0,-999.0,47,0.00,,,0.00,Wunderground v.1.15,2013-04-09 20:26:00,
2013-04-09 16:32:00,81.4,59.2,29.82,SSW,194,6.0,-999.0,47,0.00,,,0.00,Wunderground v.1.15,2013-04-09 20:32:00,
2013-04-09 16:37:00,81.3,58.5,29.82,SW,215,7.0,-999.0,46,0.00,,,0.00,Wunderground v.1.15,2013-04-09 20:37:00,
2013-04-09 16:42:00,81.3,58.5,29.82,WSW,254,7.0,-999.0,46,0.00,,,0.00,Wunderground v.1.15,2013-04-09 20:42:00,
2013-04-09 16:48:00,81.4,58.6,29.82,SW,216,7.0,-999.0,46,0.00,,,0.00,Wunderground v.1.15,2013-04-09 20:48:00,
2013-04-09 16:54:00,80.7,58.0,29.82,West,259,8.0,-999.0,46,0.00,,,0.00,Wunderground v.1.15,2013-04-09 20:54:00,
2013-04-09 17:00:00,80.6,59.1,29.82,SW,228,9.0,-999.0,48,0.00,,,0.00,Wunderground v.1.15,2013-04-09 21:00:00,
2013-04-09 17:05:00,81.2,59.1,29.82,SW,226,8.0,-999.0,47,0.00,,,0.00,Wunderground v.1.15,2013-04-09 21:05:00,
2013-04-09 17:10:00,81.3,57.9,29.82,WSW,238,7.0,-999.0,45,0.00,,,0.00,Wunderground v.1.15,2013-04-09 21:10:00,
2013-04-09 17:16:00,80.6,57.9,29.82,SW,227,8.0,-999.0,46,0.00,,,0.00,Wunderground v.1.15,2013-04-09 21:16:00,
2013-04-09 17:22:00,80.5,58.4,29.82,WSW,250,8.0,-999.0,47,0.00,,,0.00,Wunderground v.1.15,2013-04-09 21:22:00,
2013-04-09 17:27:00,80.1,58.0,29.82,SW,233,9.0,-999.0,47,0.00,,,0.00,Wunderground v.1.15,2013-04-09 21:27:00,
2013-04-09 17:33:00,80.3,58.8,29.82,West,277,8.0,-999.0,48,0.00,,,0.00,Wunderground v.1.15,2013-04-09 21:33:00,
2013-04-09 17:39:00,80.7,58.6,29.82,WSW,247,8.0,-999.0,47,0.00,,,0.00,Wunderground v.1.15,2013-04-09 21:39:00,
2013-04-09 17:44:00,80.9,58.8,29.82,SW,217,6.0,-999.0,47,0.00,,,0.00,Wunderground v.1.15,2013-04-09 21:44:00,
2013-04-09 17:49:00,81.0,58.9,29.82,SSW,205,6.0,-999.0,47,0.00,,,0.00,Wunderground v.1.15,2013-04-09 21:49:00,
2013-04-09 17:56:00,81.1,58.4,29.81,WSW,242,7.0,-999.0,46,0.00,,,0.00,Wunderground v.1.15,2013-04-09 21:56:00,
2013-04-09 18:01:00,81.1,59.0,29.81,WSW,241,6.0,-999.0,47,0.00,,,0.00,Wunderground v.1.15,2013-04-09 22:01:00,
2013-04-09 18:06:00,81.1,58.4,29.81,WSW,251,7.0,-999.0,46,0.00,,,0.00,Wunderground v.1.15,2013-04-09 22:06:00,
2013-04-09 18:11:00,80.6,57.9,29.82,SW,228,9.0,-999.0,46,0.00,,,0.00,Wunderground v.1.15,2013-04-09 22:11:00,
2013-04-09 18:16:00,80.3,57.6,29.81,WSW,250,8.0,-999.0,46,0.00,,,0.00,Wunderground v.1.15,2013-04-09 22:16:00,
2013-04-09 18:22:00,80.4,57.7,29.82,SW,227,6.0,-999.0,46,0.00,,,0.00,Wunderground v.1.15,2013-04-09 22:22:00,
2013-04-09 18:27:00,80.5,57.2,29.81,WSW,244,6.0,-999.0,45,0.00,,,0.00,Wunderground v.1.15,2013-04-09 22:27:00,
2013-04-09 18:33:00,80.3,57.0,29.82,West,260,8.0,-999.0,45,0.00,,,0.00,Wunderground v.1.15,2013-04-09 22:33:00,
2013-04-09 18:38:00,80.2,57.5,29.82,SW,220,8.0,-999.0,46,0.00,,,0.00,Wunderground v.1.15,2013-04-09 22:38:00,
2013-04-09 18:44:00,80.1,58.0,29.81,SW,225,6.0,-999.0,47,0.00,,,0.00,Wunderground v.1.15,2013-04-09 22:44:00,
2013-04-09 18:49:00,79.9,57.3,29.82,WSW,256,6.0,-999.0,46,0.00,,,0.00,Wunderground v.1.15,2013-04-09 22:49:00,
2013-04-09 18:56:00,79.6,57.0,29.81,WSW,245,8.0,-999.0,46,0.00,,,0.00,Wunderground v.1.15,2013-04-09 22:56:00,
2013-04-09 19:02:00,79.4,56.8,29.81,WSW,257,7.0,-999.0,46,0.00,,,0.00,Wunderground v.1.15,2013-04-09 23:02:00,
2013-04-09 19:08:00,79.0,57.0,29.81,WSW,244,7.0,-999.0,47,0.00,,,0.00,Wunderground v.1.15,2013-04-09 23:08:00,
2013-04-09 19:13:00,78.6,56.7,29.81,SSW,206,4.0,-999.0,47,0.00,,,0.00,Wunderground v.1.15,2013-04-09 23:13:00,
2013-04-09 19:19:00,78.2,56.3,29.81,SW,235,4.0,-999.0,47,0.00,,,0.00,Wunderground v.1.15,2013-04-09 23:19:00,
2013-04-09 19:25:00,77.9,56.0,29.82,West,272,5.0,-999.0,47,0.00,,,0.00,Wunderground v.1.15,2013-04-09 23:25:00,
2013-04-09 19:31:00,77.8,56.5,29.82,WSW,238,4.0,-999.0,48,0.00,,,0.00,Wunderground v.1.15,2013-04-09 23:31:00,
2013-04-09 19:38:00,77.7,55.9,29.82,SW,230,4.0,-999.0,47,0.00,,,0.00,Wunderground v.1.15,2013-04-09 23:38:00,
2013-04-09 19:43:00,77.6,55.8,29.81,SSW,213,5.0,-999.0,47,0.00,,,0.00,Wunderground v.1.15,2013-04-09 23:43:00,
2013-04-09 19:49:00,77.4,55.6,29.81,SW,219,5.0,-999.0,47,0.00,,,0.00,Wunderground v.1.15,2013-04-09 23:49:00,
2013-04-09 19:55:00,77.1,55.3,29.81,West,259,5.0,-999.0,47,0.00,,,0.00,Wunderground v.1.15,2013-04-09 23:55:00,
2013-04-09 20:00:00,77.1,55.3,29.81,WSW,240,5.0,-999.0,47,0.00,,,0.00,Wunderground v.1.15,2013-04-10 00:00:00,
2013-04-09 20:06:00,76.9,55.1,29.81,WSW,246,4.0,-999.0,47,0.00,,,0.00,Wunderground v.1.15,2013-04-10 00:06:00,
2013-04-09 20:13:00,76.7,55.0,29.81,WSW,257,3.0,-999.0,47,0.00,,,0.00,Wunderground v.1.15,2013-04-10 00:13:00,
2013-04-09 20:18:00,76.6,54.9,29.81,SW,219,5.0,-999.0,47,0.00,,,0.00,Wunderground v.1.15,2013-04-10 00:18:00,
2013-04-09 20:24:00,76.6,54.9,29.81,SW,234,5.0,-999.0,47,0.00,,,0.00,Wunderground v.1.15,2013-04-10 00:24:00,
2013-04-09 20:29:00,76.5,55.3,29.81,SW,233,5.0,-999.0,48,0.00,,,0.00,Wunderground v.1.15,2013-04-10 00:29:00,
2013-04-09 20:35:00,76.2,55.1,29.81,SW,234,4.0,-999.0,48,0.00,,,0.00,Wunderground v.1.15,2013-04-10 00:35:00,
2013-04-09 20:41:00,75.9,54.8,29.81,West,261,3.0,-999.0,48,0.00,,,0.00,Wunderground v.1.15,2013-04-10 00:41:00,
2013-04-09 20:47:00,75.7,54.6,29.82,SW,232,3.0,-999.0,48,0.00,,,0.00,Wunderground v.1.15,2013-04-10 00:47:00,
2013-04-09 20:53:00,75.6,55.1,29.82,West,269,2.0,-999.0,49,0.00,,,0.00,Wunderground v.1.15,2013-04-10 00:53:00,
2013-04-09 20:59:00,75.6,55.1,29.83,West,262,3.0,-999.0,49,0.00,,,0.00,Wunderground v.1.15,2013-04-10 00:59:00,
2013-04-09 21:05:00,75.4,54.9,29.83,SW,216,3.0,-999.0,49,0.00,,,0.00,Wunderground v.1.15,2013-04-10 01:05:00,
2013-04-09 21:11:00,75.2,54.7,29.83,West,275,3.0,-999.0,49,0.00,,,0.00,Wunderground v.1.15,2013-04-10 01:11:00,
2013-04-09 21:17:00,74.9,55.0,29.83,SW,224,2.0,-999.0,50,0.00,,,0.00,Wunderground v.1.15,2013-04-10 01:17:00,
2013-04-09 21:22:00,74.5,54.6,29.83,SW,227,1.0,-999.0,50,0.00,,,0.00,Wunderground v.1.15,2013-04-10 01:22:00,
2013-04-09 21:28:00,74.2,54.9,29.84,West,259,2.0,-999.0,51,0.00,,,0.00,Wunderground v.1.15,2013-04-10 01:28:00,
2013-04-09 21:34:00,73.9,55.2,29.84,WSW,258,2.0,-999.0,52,0.00,,,0.00,Wunderground v.1.15,2013-04-10 01:34:00,
2013-04-09 21:40:00,73.6,54.9,29.84,West,275,1.0,-999.0,52,0.00,,,0.00,Wunderground v.1.15,2013-04-10 01:40:00,
2013-04-09 21:46:00,73.4,55.2,29.84,WSW,242,2.0,-999.0,53,0.00,,,0.00,Wunderground v.1.15,2013-04-10 01:46:00,
2013-04-09 21:51:00,73.5,55.3,29.85,WSW,242,3.0,-999.0,53,0.00,,,0.00,Wunderground v.1.15,2013-04-10 01:51:00,
2013-04-09 21:57:00,73.6,55.4,29.85,WSW,242,3.0,-999.0,53,0.00,,,0.00,Wunderground v.1.15,2013-04-10 01:57:00,
2013-04-09 22:03:00,73.7,55.5,29.85,WSW,251,4.0,-999.0,53,0.00,,,0.00,Wunderground v.1.15,2013-04-10 02:03:00,
2013-04-09 22:09:00,73.6,55.4,29.84,SW,218,4.0,-999.0,53,0.00,,,0.00,Wunderground v.1.15,2013-04-10 02:09:00,
2013-04-09 22:15:00,73.4,55.7,29.84,SW,236,3.0,-999.0,54,0.00,,,0.00,Wunderground v.1.15,2013-04-10 02:15:00,
2013-04-09 22:21:00,73.0,55.4,29.84,West,270,4.0,-999.0,54,0.00,,,0.00,Wunderground v.1.15,2013-04-10 02:21:00,
2013-04-09 22:27:00,72.8,55.7,29.84,SW,228,4.0,-999.0,55,0.00,,,0.00,Wunderground v.1.15,2013-04-10 02:27:00,
2013-04-09 22:32:00,72.6,55.5,29.84,SW,221,4.0,-999.0,55,0.00,,,0.00,Wunderground v.1.15,2013-04-10 02:32:00,
2013-04-09 22:38:00,72.5,55.9,29.84,SSW,213,4.0,-999.0,56,0.00,,,0.00,Wunderground v.1.15,2013-04-10 02:38:00,
2013-04-09 22:43:00,72.4,55.8,29.84,SW,222,4.0,-999.0,56,0.00,,,0.00,Wunderground v.1.15,2013-04-10 02:43:00,
2013-04-09 22:49:00,72.3,55.7,29.84,SSW,205,3.0,-999.0,56,0.00,,,0.00,Wunderground v.1.15,2013-04-10 02:49:00,
2013-04-09 22:55:00,72.0,55.4,29.84,SSW,208,2.0,-999.0,56,0.00,,,0.00,Wunderground v.1.15,2013-04-10 02:55:00,
2013-04-09 23:00:00,72.0,55.9,29.84,SW,236,2.0,-999.0,57,0.00,,,0.00,Wunderground v.1.15,2013-04-10 03:00:00,
2013-04-09 23:05:00,71.7,55.7,29.84,WSW,256,3.0,-999.0,57,0.00,,,0.00,Wunderground v.1.15,2013-04-10 03:05:00,
2013-04-09 23:11:00,71.9,55.8,29.84,SW,234,3.0,-999.0,57,0.00,,,0.00,Wunderground v.1.15,2013-04-10 03:11:00,
2013-04-09 23:17:00,71.8,55.7,29.84,West,281,3.0,-999.0,57,0.00,,,0.00,Wunderground v.1.15,2013-04-10 03:17:00,
2013-04-09 23:23:00,71.8,55.7,29.84,WSW,254,2.0,-999.0,57,0.00,,,0.00,Wunderground v.1.15,2013-04-10 03:23:00,
2013-04-09 23:29:00,71.6,56.0,29.84,West,276,1.0,-999.0,58,0.00,,,0.00,Wunderground v.1.15,2013-04-10 03:29:00,
2013-04-09 23:35:00,71.4,55.9,29.84,West,265,2.0,-999.0,58,0.00,,,0.00,Wunderground v.1.15,2013-04-10 03:35:00,
2013-04-09 23:41:00,71.1,56.0,29.84,West,275,1.0,-999.0,59,0.00,,,0.00,Wunderground v.1.15,2013-04-10 03:41:00,
2013-04-09 23:46:00,70.5,55.5,29.84,West,275,1.0,-999.0,59,0.00,,,0.00,Wunderground v.1.15,2013-04-10 03:46:00,
2013-04-09 23:52:00,69.4,55.4,29.84,West,265,0.0,-999.0,61,0.00,,,0.00,Wunderground v.1.15,2013-04-10 03:52:00,
2013-04-09 23:58:00,68.9,55.3,29.84,West,265,0.0,-999.0,62,0.00,,,0.00,Wunderground v.1.15,2013-04-10 03:58:00,